Regional Weather Roundup
Issued by NWS Pendleton, OR

Home | Current Version | Previous Version | Text Only | Print | Product List | Glossary On
Versions: 1 2 3 4 5 6 7 8 9 10 11 12 13 14 15 16 17 18 19 20 21 22 23 24 25 26 27 28 29 30 31 32 33 34 35 36 37 38 39 40 41 42 43 44 45 46 47 48 49 50
000
ASUS46 KPDT 200725
RWRPDT
PENDLETON REGIONAL WEATHER ROUNDUP
NATIONAL WEATHER SERVICE PENDLETON OREGON
1200 AM PDT SAT SEP 20 2014

NOTE: FAIR INDICATES FEW OR NO CLOUDS BELOW 12,000 FEET WITH NO
SIGNIFICANT WEATHER AND/OR OBSTRUCTIONS TO VISIBILITY.

# INDICATES UNOFFICIAL STATION AND DATA

WAZ520-200810-
EAST SLOPES OF WASHINGTON CASCADES

CITY            SKY/WX      TMP DP  RH  WIND    PRES   REMARKS
#BUMPING DAM    N/A         51  N/A N/A N2      N/A
#CLE ELUM HS    N/A         55  50  83  CALM    30.06S
#CLE ELUM 2NW   N/A         53  49  86  W1      N/A
#CLE ELUM LAKE  N/A         55  50  83  CALM    30.02F
#CLIFFDEL 2NW   N/A         57  50  77  N1      N/A
#GLENWOOD       N/A         49  47  93  CALM    30.02R
#MANASTASH CYN  N/A         54  54  100 CALM    30.10R
#NELSON 3SW     N/A         52  47  83  CALM    30.22F
#RONALD 2NW     N/A         55  48  77  N1      30.01F
#SNOWDEN        N/A          0  -78  1  CALM    N/A
#TEANAWAY 4NE   N/A         56  51  83  CALM    N/A
#TROUT LAKE 1NE N/A         55  50  83  NW2     30.01R
$$

WAZ521-200810-
SIMCOE HIGHLANDS

CITY            SKY/WX      TMP DP  RH  WIND    PRES   REMARKS
#BICKLETON HS   N/A         63  43  48  N7      30.15S
#CENTERVILLE 4W N/A         64  52  65  W1      29.81S
#CENTERVILLE 1SWN/A         57  48  72  CALM    29.96S
#GOLDENDALE     N/A         60  50  69  E2      N/A
#GOLDENDALE 1NE N/A         58  47  67  N3      N/A
#GOLDENDALE 1S  N/A         57  49  75  CALM    30.03S
#GOODNOE HILLS  N/A         67  54  63  NW3     29.98R
#LYLE 6NE       N/A         64  54  70  CALM    29.96S
$$

WAZ026-200810-
KITTITAS VALLEY

CITY            SKY/WX      TMP DP  RH  WIND    PRES   REMARKS
ELLENSBURG AP   CLEAR       63  51  65  NW15    30.08S
#ELLENSBURG CWU N/A         62  52  70  W6      29.98R
#ELLENSBURG 3NE N/A         63  53  70  W5      30.08R
#ELLENSBURG     N/A         66  56  70  NW2     N/A
#KITTITAS 3S    N/A         55  51  86  CALM    30.01R
#THORP 6N       N/A         56  50  80  N6      30.04R
$$

WAZ027-200810-
YAKIMA VALLEY

CITY            SKY/WX      TMP DP  RH  WIND    PRES   REMARKS
SUNNYSIDE AP    CLOUDY      54  52  93  N5      30.03R
YAKIMA AIRPORT  CLEAR       65  52  63  NW6     30.06R
YAKIMA-VAGABOND CLEAR       65  51  60  E8      30.08R
#COWICHE 1N     N/A         64  52  65  W7      30.23S
#DONALD 2NE     N/A         67  50  54  E1      30.36R
#GRANDVIEW      N/A         60  51  72  CALM    30.02R
#MABTON         N/A         65  52  63  CALM    30.02R
#MOXEE 2E       N/A         66  41  40  CALM    29.96R
#NACHES 2SW     N/A         65  53  65  W7      30.09R
#OUTLOOK DOT    N/A         N/A N/A N/A W1      N/A
#SELAH 8E       N/A         63  50  62  E3      N/A
#TERRACE HTS    N/A         65  52  63  CALM    29.97S
#TOPPENISH      N/A         67  54  63  W1      29.93R
#WAPATO 4NE     N/A         67  50  54  E1      30.36R
#WEST VALLEY    N/A         65  52  63  CALM    30.00R
#W YAKIMA       N/A         66  53  63  N1      30.01S
#WHITE SWAN 5E  N/A         60  53  78  CALM    30.02R
#WILEY CITY 3W  N/A         58  45  62  CALM    30.06R
$$

WAZ028-200810-
LOWER COLUMBIA BASIN...WASHINGTON

CITY            SKY/WX      TMP DP  RH  WIND    PRES   REMARKS
PASCO           CLEAR       60  55  84  CALM    30.03R
PROSSER AWOS    N/A         57  52  83  N2      30.06R
RICHLAND AWOS   CLEAR       64  52  65  N6      30.02S
#BASIN CITY 5SW N/A         61  53  75  N1      30.03S
#BENTON CITY    N/A         70  52  53  CALM    29.91R
#CONNELL 5N     N/A         62  51  67  NW2     30.01S
#CONNELL 5NW    N/A         61  52  72  NW1     29.97S
#ELTOPIA        N/A         64  52  65  CALM    29.98R
#ELTOPIA 6NW    N/A         61  52  72  N2      29.00S
#KENNEWICK 3S   N/A         67  52  59  CALM    30.01R
#PASCO-BROADMOORN/A         66  56  70  CALM    29.91R
#PATERSON       N/A         65  53  65  CALM    29.98R
#PROSSER        N/A         70  48  46  SW3     30.00R
#SAGEMOOR 2W    N/A         63  53  70  CALM    29.86R
#TOUCHET 2S     N/A         51  46  83  CALM    29.98R
#WEST PASCO     N/A         65  52  63  CALM    30.01R
$$

WAZ029-200810-
FOOTHILLS OF THE BLUES...WASHINGTON

CITY            SKY/WX      TMP DP  RH  WIND    PRES   REMARKS
WALLA WALLA AP  CLEAR       66  46  48  CALM    30.05R
#DAYTON SCHOOL  N/A         59  42  53  VRB2    30.06R
#LOWDEN 2SE     N/A         58  49  72  CALM    29.98S
#PLEASANT VIEW 1N/A         69  47  45  CALM    30.04R
#PRESCOTT       N/A         60  47  62  CALM    29.99R
#SUDBURY        N/A         58  N/A N/A CALM    N/A
#WHITMAN COLLEGEN/A         65  50  58  CALM    30.05R
#WAITSBURG 8N   N/A         63  34  34  CALM    29.97S
#WALLA WALLA 5E N/A         64  44  48  W7      N/A
#WALLA WALLA U  N/A         64  50  60  CALM    29.99R
#WHITMAN MISSIONN/A         57  51  80  CALM    30.01R
$$

WAZ030-200810-
BLUE MOUNTAINS...WASHINGTON

CITY            SKY/WX      TMP DP  RH  WIND    PRES   REMARKS
$$

ORZ009-041-WAZ024-200810-
COLUMBIA RIVER GORGE

CITY            SKY/WX      TMP DP  RH  WIND    PRES   REMARKS
HOOD RIVER AP   CLEAR       59  54  83  SW3     30.04S
THE DALLES AP   CLEAR       70  54  57  W7      30.00R
#ARLINGTON AIRPON/A         68  53  59  SW1     29.95S
#ARLINGTON HS   N/A         68  52  57  N2      29.90R
#MARYHILL 2W    N/A         70  56  61  SE1     N/A
#MOSIER 1S      N/A         65  45  48  CALM    30.03S
#MURDOCK        N/A         72  58  61  W10     30.01R
#RUFUS DOT      N/A         71  55  57  NW3     N/A

$$

ORZ510-200810-
NORTH CENTRAL OREGON

CITY            SKY/WX      TMP DP  RH  WIND    PRES   REMARKS
#CHENOWITH 1W   N/A         65  53  65  NW16    N/A
#COW CYN RST AREN/A         62  47  58  NE5     N/A
#DUFUR 9E       N/A         66  52  61  W5      30.04S
#GRASS VALLEY   N/A         56  49  77  E1      N/A
#GRASS VALLEY 1SN/A         60  50  69  CALM    30.01F
#KENT DOT       N/A         60  45  58  SE1     N/A
#MAUPIN SCHOOL  N/A         65  50  58  CALM    28.92R
#MORO SCHOOL    N/A         65  56  73  W7      30.06S
#SHANIKO 5WSW   N/A         61  43  51  N9      N/A
#SHANIKO 4NW    N/A         61  47  60  NE6     30.13S
#TYGH VALLEY 2NEN/A         62  50  65  CALM    30.00R
#WAPANITIA AIRPON/A         60  49  67  W2      30.01S
#WASCO DOT      N/A         58  50  75  E1      N/A
#WASCO 5NE      N/A         63  52  67  CALM    29.99R
$$

ORZ511-200810-
CENTRAL OREGON

CITY            SKY/WX      TMP DP  RH  WIND    PRES   REMARKS
BEND AIRPORT    CLEAR       57  45  64  CALM    30.15R
MADRAS AIRPORT  CLEAR       57  46  67  CALM    30.11R
REDMOND AIRPORT CLEAR       53  41  64  S3      30.11S
#BEND 6E        N/A         57  43  59  CALM    29.93F
#BEND 1SW       N/A         51  40  66  E1      N/A
#BEND-AWBREY    N/A         60  48  64  CALM    30.01F
#BEND-KIM LN    N/A         57  48  72  CALM    30.11S
#CROOKED RVR RANN/A         61  49  65  NE9     30.00S
#CULVER         N/A         58  49  72  CALM    30.06S
#LAKE BILLY CHINN/A         62  32  32  CALM    30.13S
#POWELL BUTTE 3EN/A         58  42  55  S2      N/A
#POWELL BUTTE   N/A         57  43  59  SW2     29.76S
#PRINEVILLE 3N  N/A         54  45  71  CALM    29.97S
#WARM SPRINGS   N/A         66  50  56  S1      30.03S


ORZ509-200810-
EAST SLOPES OF OREGON CASCADES

CITY            SKY/WX      TMP DP  RH  WIND    PRES   REMARKS
#BLUE BOX PASS  N/A         55   3  12  NE5     N/A
#CAMP SHERMAN   N/A         49  42  77  CALM    30.03R
#LA PINE DOT    N/A         53  36  52  W5      N/A
#LA PINE 4NW    N/A         54  43  66  CALM    30.07R
#LAVA BUTTE DOT N/A         50  39  66  NE1     N/A
#SISTERS AIRPOR N/A         51  46  83  CALM    29.91S
#SISTERS ODOT   N/A         50  N/A N/A CALM    N/A
#SISTERS 3N     N/A         49  36  61  CALM    N/A
#SUNRIVER       N/A         51  44  77  CALM    29.93R
#SUNRIVER AP    N/A         49  44  83  CALM    29.99R
#SUTTLE LK DOT  N/A         48  45  89  W7      N/A
#TUMALO 3W      N/A         63  47  56  W3      29.90S
#WANOGA BUTTE D N/A         55  42  61  NE3     N/A

$$

ORZ044-200810-
LOWER COLUMBIA BASIN...OREGON

CITY            SKY/WX      TMP DP  RH  WIND    PRES   REMARKS
HERMISTON       CLEAR       62  47  58  E3      30.02R
#BOARDMAN SCHOOLN/A         62  50  65  CALM    30.00R
#BOARDMAN 3W    N/A         57  52  83  SE1     29.71S
#BOARDMAN 8SW   N/A         65  54  68  SW3     29.99R
#ECHO 8SW       N/A         63  44  50  SW5     29.99R
#IONE SCHOOL    N/A         62  47  58  CALM    30.03R
#IRRIGON 4NW    N/A         63  53  70  E5      N/A
#UMATILLA SCHOOLN/A         63  56  78  S1      30.07R
#UMATILLA       N/A         64  47  54  CALM    29.99R
$$

ORZ507-200810-
NORTHERN FOOTHILLS OF THE BLUES

CITY            SKY/WX      TMP DP  RH  WIND    PRES   REMARKS
PENDLETON AIRPT CLEAR       61  43  51  E8      30.05R
#ADAMS 3WNW     N/A         53  40  61  CALM    30.01R
#ATHENA         N/A         53  44  71  CALM    30.03R
#HELIX SCHOOL   N/A         56  41  57  CALM    30.01R
#HELIX 3N       N/A         63  44  50  CALM    30.03S
#HOLDMAN 5SE    N/A         60  45  58  CALM    30.05R
#HOLDMAN 6E     N/A         62  44  52  CALM    29.82R
#M-F GROVE ELEM N/A         67  44  43  S2      30.02S
#M-FREEWATER 5SEN/A         64  47  54  E1      30.04R
#PENDLETON DNTN N/A         60  38  44  CALM    30.05S
#PDT AQUATIC CTRN/A         61  39  44  CALM    30.06S
#PENDLETON 5NE  N/A         55  43  64  CALM    30.01R
#PDT SUNRIDGE   N/A         57  45  64  CALM    30.05S
#PENDLETON 7NW  N/A         59  44  57  SE5     N/A
#PILOT ROCK     N/A         64  44  48  SE6     30.08R
#TUTUILLA       N/A         52  46  80  CALM    30.02R
#UMAPINE 2E     N/A         61  50  67  CALM    29.99S
#WESTON SCHOOL  N/A         63  43  48  CALM    30.03R

$$

ORZ508-200810-
SOUTHERN FOOTHILLS OF THE BLUES

CITY            SKY/WX      TMP DP  RH  WIND    PRES   REMARKS
LEXINGTON       CLEAR       64  45  50  E15     30.07S
#AJAX           N/A         66  45  47  CALM    30.01S
#CONDON SCHOOL  N/A         62  49  62  CALM    30.06S
#CONDON 5W      N/A         63  48  58  N2      30.09S
#FOSSIL SCHOOL  N/A         54  43  66  CALM    30.08R
#HEPPNER EOC    N/A         61  45  56  SE8     29.96S
#HEPPNER 4NE    N/A         61  46  58  CALM    30.01S
#LEXINGTON 2SE  N/A         63  46  54  S5      30.02S
#MIKKALO        N/A         64  48  56  SE1     30.06R
#OLEX 4N        N/A         63  50  62  SW1     30.02R
#RUGGS 5NE      N/A         57  42  57  SE1     30.27S
#RUGGS 2SW      N/A         62  45  54  S7      30.02S

$$

ORZ502-503-200810-
BLUE MOUNTAINS

CITY            SKY/WX      TMP DP  RH  WIND    PRES   REMARKS
MEACHAM         CLEAR       45  40  82  CALM    30.16S
#BATTLE MTN DOT N/A         54  49  83  SE1     N/A
#HARDMAN 10S    N/A         55  44  66  CALM    30.20S
#HEPPNER 15SE   N/A         51  43  74  SE2     30.09S
#LADD CYN SMT   N/A         48  39  71  SE1     N/A
#LADD CREEK ODOTN/A         53  44  71  S2      N/A
#N POWDER DOT   N/A         50  46  86  NE3     N/A
#PIKES PEAK     N/A         67  46  47  W1      27.99S
#TOLLGATE       N/A         52  44  74  CALM    30.12R
#TROY SCHOOL    N/A         58  49  72  CALM    29.89R
#UKIAH          N/A         46  41  83  CALM    30.09R
#WESTON 4E      N/A         61  45  56  E3      29.97R
$$

ORZ505-200810-
JOHN DAY BASIN

CITY            SKY/WX      TMP DP  RH  WIND    PRES   REMARKS
JOHN DAY        CLEAR       58  42  55  E8      30.15R
#JOHN DAY KJDY  N/A         56  45  66  CALM    30.13S
#MONUMENT HS    N/A         57  42  57  CALM    30.09R
#MT. VERNON 5SE N/A         58  43  57  CALM    30.11R
#WINLOCK        N/A         58  45  62  CALM    30.18S
$$

ORZ506-200810-
OCHOCO AND JOHN DAY HIGHLANDS

CITY            SKY/WX      TMP DP  RH  WIND    PRES   REMARKS
#BUCK CREEK DOT N/A         60  46  60  S1      N/A
#HORSE RIDGE DO N/A         43  30  60  E1      N/A
#KEYES SMT DOT  N/A         53  41  64  E2      N/A
#PAULINA SCHOOL N/A         50  38  63  CALM    30.12S
#PINE MTN OBS   N/A         55  42  61  CALM    N/A
#PRAIRIE CITY   N/A         48  41  77  E1      30.17R
#SENECA 9NW     N/A         45  38  76  CALM    30.03R
$$

ORZ049-200810-
GRANDE RONDE VALLEY

CITY            SKY/WX      TMP DP  RH  WIND    PRES   REMARKS
LA GRANDE       CLEAR       54  36  50  CALM    30.12R
#COVE           N/A         54  45  71  N1      30.03S
#COVE SCHOOL    N/A         56  44  64  CALM    30.09S
#COVE 6NW       N/A         53  42  66  CALM    30.06R
#ELGIN 3N       N/A         52  41  66  CALM    29.85R
#ELGIN 1E       N/A         52  41  66  CALM    N/A
#IMBLER SCHOOL  N/A         58  44  60  N6      30.07R
#LADD CYN DOT   N/A         59  43  55  SE15    N/A
#LA GRANDE ELEM N/A         59  45  60  CALM    30.09R
#UNION 1S       N/A         52  44  74  CALM    29.93R
$$

ORZ050-200810-
WALLOWA COUNTY

CITY            SKY/WX      TMP DP  RH  WIND    PRES   REMARKS
JOSEPH AIRPORT  CLEAR       50  43  77  CALM    30.19R
#ENTERPRISE AP  N/A         52  41  66  N1      30.09S
#ENTERPRISE HS  N/A         48  42  80  CALM    30.16R
#IMNAHA SCHOOL  N/A         60  46  60  CALM    30.05R
#IMNAHA 10S     N/A         59  44  57  SW5     30.12R
#JOSEPH 3N      N/A         45  39  79  CALM    30.18R
#JOSEPH 3W      N/A         54  42  64  SW2     30.03S
#LOSTINE        N/A         52  44  74  CALM    29.85S
#MT HOWARD 8000 N/A         48  41  77  CALM    30.36F
#PROMISE 1S     N/A         53  45  74  CALM    30.15S
#SHEEP RDG 7000 N/A         51  40  66  CALM    30.07F
#WALLOWA SCHOOL N/A         49  44  83  CALM    30.94R



$$



USA.gov is the U.S. government's official web portal to all federal, state and local government web resources and services.